Gage, OK

2:39 PM CST on November 22, 2017 (GMT -0600)
Gage

Weather History for KGAG - April, 2014

Change the Weather History Date:

Wednesday, April 9, 2014

  Actual Average Record
Temperature  
Mean Temperature 66 °F -  
Max Temperature 90 °F 70 °F 95 °F (2011)
Min Temperature 43 °F 38 °F 19 °F (2003)
Cooling Degree Days 2    
Growing Degree Days 16 (Base 50)    
Moisture  
Dew Point 26 °F    
Average Humidity 29    
Maximum Humidity 58    
Minimum Humidity 7    
Precipitation  
Precipitation 0.00 in - - ()
Sea Level Pressure  
Sea Level Pressure 29.93 in    
Wind  
Wind Speed 11 mph (SSW)    
Max Wind Speed 26 mph    
Max Gust Speed 36 mph    
Visibility 10 miles    
Events      
Averages and records for this station are not official NWS values.
T = Trace of Precipitation, MM = Missing Value Source: NWS Daily Summary

Daily Weather History Graph

Daily Weather History Graph

Search for Another Location

Airport or City:

Trip Planner

Search our weather history database for the weather conditions in past years. The results will help you decide how hot, cold, wet, or windy it might be!

Date:

Astronomy

Apr. 09, 2014 Rise Set
Actual Time 7:13 AM CDT 8:08 PM CDT
Civil Twilight 6:47 AM CDT 8:34 PM CDT
Nautical Twilight 6:16 AM CDT 9:05 PM CDT
Astronomical Twilight 5:44 AM CDT 9:37 PM CDT
Moon 3:06 PM CDT (4/9) 3:54 AM CDT (4/9)
Length of Visible Light 13h 46m
Length of Day
12h 54m
Waxing Gibbous, 72% of the Moon is Illuminated
Apr 9
Waxing Gibbous
Apr 15
Full
Apr 22
Last Quarter
Apr 29
New
May 6
First Quarter

Hourly Weather History & Observations

Time (CDT) Temp. Windchill Dew Point Humidity Pressure Visibility Wind Dir Wind Speed Gust Speed Precip Events Conditions
12:53 AM 46.0 °F 43.1 °F 28.9 °F 51% 30.11 in 10.0 mi South 5.8 mph - N/A   Clear
1:53 AM 43.0 °F - 28.9 °F 58% 30.11 in 10.0 mi Calm Calm - N/A   Clear
2:53 AM 46.9 °F - 28.9 °F 50% 30.10 in 10.0 mi South 10.4 mph - N/A   Clear
3:53 AM 43.0 °F 41.3 °F 28.0 °F 56% 30.09 in 10.0 mi WSW 3.5 mph - N/A   Clear
4:53 AM 43.0 °F 39.5 °F 28.9 °F 58% 30.07 in 10.0 mi SSW 5.8 mph - N/A   Clear
5:53 AM 44.1 °F 41.5 °F 28.9 °F 55% 30.06 in 10.0 mi SSW 4.6 mph - N/A   Clear
6:53 AM 44.1 °F 40.8 °F 28.9 °F 55% 30.06 in 10.0 mi SSW 5.8 mph - N/A   Clear
7:53 AM 46.9 °F - 30.0 °F 52% 30.07 in 10.0 mi SSW 8.1 mph - N/A   Clear
8:53 AM 55.9 °F - 30.9 °F 39% 30.05 in 10.0 mi SW 12.7 mph - N/A   Clear
9:53 AM 66.0 °F - 30.9 °F 27% 30.04 in 10.0 mi SW 16.1 mph - N/A   Clear
10:53 AM 73.0 °F - 28.0 °F 19% 30.02 in 10.0 mi South 17.3 mph 26.5 mph N/A   Clear
11:53 AM 78.1 °F - 27.0 °F 15% 29.99 in 10.0 mi South 19.6 mph 27.6 mph N/A   Clear
12:53 PM 82.9 °F - 24.1 °F 12% 29.95 in 10.0 mi SSW 19.6 mph 31.1 mph N/A   Clear
1:53 PM 84.9 °F - 21.9 °F 10% 29.91 in 10.0 mi SSW 20.7 mph 33.4 mph N/A   Clear
2:53 PM 87.1 °F - 21.9 °F 9% 29.87 in 10.0 mi SW 26.5 mph 32.2 mph N/A   Clear
3:53 PM 89.1 °F - 21.0 °F 8% 29.83 in 10.0 mi SW 26.5 mph 35.7 mph N/A   Clear
4:53 PM 90.0 °F - 18.0 °F 7% 29.78 in 10.0 mi South 23.0 mph 32.2 mph N/A   Clear
5:53 PM 89.1 °F - 18.0 °F 7% 29.75 in 10.0 mi SSW 24.2 mph 32.2 mph N/A   Clear
6:53 PM 87.1 °F - 18.0 °F 8% 29.75 in 10.0 mi SW 12.7 mph - N/A   Clear
7:53 PM 80.1 °F - 24.1 °F 13% 29.75 in 10.0 mi South 13.8 mph - N/A   Clear
8:53 PM 72.0 °F - 24.1 °F 17% 29.75 in 10.0 mi South 11.5 mph - N/A   Clear
9:53 PM 71.1 °F - 24.1 °F 17% 29.75 in 10.0 mi SSE 12.7 mph - N/A   Clear
10:53 PM 69.1 °F - 26.1 °F 20% 29.74 in 10.0 mi SSE 15.0 mph - N/A   Clear
11:53 PM 66.9 °F - 27.0 °F 22% 29.73 in 10.0 mi South 17.3 mph - N/A   Clear